No particular awareness of the weather is required.    There are no Weather-warnings


Meteo18 Weather Cam more information Meteo18 Weather Cam


Thunder radar more information blitzortung!


Rain radar more information rain snow radar


Visit our other weather sites:

Template documentation
and downloads

And another site



Weather Underground History page Text

Daily Summary for February 5, 2018 Units:  Metric    English   Both
« Previous Day
Next Day »
Daily Weekly Monthly Yearly Custom
  High: Low: Average:
Temperature: -17.8 °C -19.1 °C -18.2 °C
Dew Point: -17.8 °C -19.9 °C -18.9 °C
Humidity: Humidity % 80 % 91 %
Wind Speed: 0 km/h 0 km/h 11.1 km/h
Wind Gust: 0 km/h - -
Wind:- - East
Pressure: 0 hPa 34303.6 hPa -
Precipitation: 0 mm    
Historical Graphs
 
 
Tabular Data for February 5, 2018
Time Temperature Dew Point Pressure Wind Wind Speed Wind Gust Humidity Rainfall Rate (Hourly)
-17.8 °C -17.8 °C 0 hPa Calm     Humidity % 0 mm
00:05 -18 °C -18.9 °C 34520.3 hPa NE 10.3 km/h 28.5 km/h 89 % 0 mm
00:11 -18.1 °C -18.9 °C 34520.3 hPa NNE 12.7 km/h 36.2 km/h 89 % 0 mm
00:17 -18.1 °C -19 °C 34520.3 hPa NNE 17.9 km/h 28.5 km/h 89 % 0 mm
00:23 -18.1 °C -19 °C 34520.3 hPa ENE 12.7 km/h 36.2 km/h 89 % 0 mm
00:29 -18.1 °C -19.1 °C 34520.3 hPa NNE 31.4 km/h 44.1 km/h 88 % 0 mm
00:35 -18.1 °C -19.2 °C 34520.3 hPa NNE 20.9 km/h 41.4 km/h 87 % 0 mm
00:41 -18.2 °C -19.3 °C 34520.3 hPa NE 28.5 km/h 38.8 km/h 86 % 0 mm
00:47 -18.2 °C -19.2 °C 34520.3 hPa NE 15.6 km/h 25.9 km/h 87 % 0 mm
00:53 -18.2 °C -19.3 °C 34520.3 hPa NNE 28.5 km/h 33.6 km/h 86 % 0 mm
00:59 -18.2 °C -19.3 °C 34520.3 hPa NNE 26.2 km/h 46.7 km/h 86 % 0 mm
01:05 -18.2 °C -19.4 °C 34520.3 hPa NNE 20.9 km/h 38.8 km/h 85 % 0 mm
01:11 -18.2 °C -19.6 °C 34520.3 hPa NNE 36.5 km/h 38.8 km/h 84 % 0 mm
01:17 -18.2 °C -19.6 °C 34520.3 hPa NE 20.9 km/h 36.2 km/h 84 % 0 mm
01:23 -18.2 °C -19.6 °C 34510.1 hPa NE 26.2 km/h 38.8 km/h 84 % 0 mm
01:29 -18.2 °C -19.7 °C 34510.1 hPa NNE 15.6 km/h 38.8 km/h 82 % 0 mm
01:35 -18.2 °C -19.8 °C 34520.3 hPa North 20.9 km/h 46.7 km/h 81 % 0 mm
01:41 -18.2 °C -19.8 °C 34520.3 hPa NNE 33.6 km/h 46.7 km/h 81 % 0 mm
01:47 -18.3 °C -19.8 °C 34520.3 hPa NE 23 km/h 49.2 km/h 81 % 0 mm
01:53 -18.3 °C -19.8 °C 34520.3 hPa NE 15.6 km/h 49.2 km/h 81 % 0 mm
01:59 -18.3 °C -19.8 °C 34520.3 hPa NNE 41.7 km/h 57 km/h 81 % 0 mm
02:05 -18.3 °C -19.9 °C 34520.3 hPa NNE 33.6 km/h 38.8 km/h 80 % 0 mm
02:11 -18.3 °C -19.9 °C 34520.3 hPa NE 28.5 km/h 46.7 km/h 80 % 0 mm
02:17 -18.3 °C -19.9 °C 34520.3 hPa NE 33.6 km/h 33.6 km/h 81 % 0 mm
02:23 -18.4 °C -19.9 °C 34520.3 hPa NE 17.9 km/h 38.8 km/h 82 % 0 mm
02:29 -18.4 °C -19.9 °C 34510.1 hPa NE 28.5 km/h 49.2 km/h 82 % 0 mm
02:35 -18.4 °C -19.9 °C 34510.1 hPa ENE 23 km/h 51.8 km/h 82 % 0 mm
02:41 -18.4 °C -19.9 °C 34510.1 hPa NNE 33.6 km/h 41.4 km/h 82 % 0 mm
02:47 -18.4 °C -19.8 °C 34510.1 hPa NNE 20.9 km/h 44.1 km/h 83 % 0 mm
02:53 -18.5 °C -19.9 °C 34496.6 hPa NNE 17.9 km/h 44.1 km/h 83 % 0 mm
02:59 -18.5 °C -19.9 °C 34496.6 hPa NNE 26.2 km/h 44.1 km/h 83 % 0 mm
03:05 -18.5 °C -19.8 °C 34496.6 hPa NE 38.8 km/h 38.8 km/h 84 % 0 mm
03:11 -18.6 °C -19.9 °C 34496.6 hPa NE 26.2 km/h 44.1 km/h 83 % 0 mm
03:17 -18.6 °C -19.9 °C 34496.6 hPa NNE 38.8 km/h 44.1 km/h 84 % 0 mm
03:23 -18.6 °C -19.9 °C 34510.1 hPa NNE 26.2 km/h 44.1 km/h 83 % 0 mm
03:29 -18.6 °C -19.9 °C 34510.1 hPa ENE 20.9 km/h 31.1 km/h 84 % 0 mm
03:35 -18.6 °C -19.9 °C 34510.1 hPa ENE 28.5 km/h 44.1 km/h 84 % 0 mm
03:41 -18.6 °C -19.9 °C 34510.1 hPa NNE 12.7 km/h 28.5 km/h 84 % 0 mm
03:47 -18.6 °C -19.9 °C 34510.1 hPa North 15.6 km/h 36.2 km/h 83 % 0 mm
03:53 -18.6 °C -19.9 °C 34510.1 hPa NNE 20.9 km/h 23.3 km/h 84 % 0 mm
03:59 -18.6 °C -19.9 °C 34496.6 hPa North 28.5 km/h 44.1 km/h 84 % 0 mm
04:05 -18.6 °C -19.9 °C 34510.1 hPa NNE 7.6 km/h 25.9 km/h 84 % 0 mm
04:11 -18.6 °C -19.8 °C 34496.6 hPa NE 15.6 km/h 28.5 km/h 85 % 0 mm
04:17 -18.6 °C -19.8 °C 34496.6 hPa North 10.3 km/h 38.8 km/h 85 % 0 mm
04:23 -18.6 °C -19.7 °C 34496.6 hPa NNE 20.9 km/h 44.1 km/h 86 % 0 mm
04:29 -18.6 °C -19.7 °C 34496.6 hPa NNE 33.6 km/h 33.6 km/h 86 % 0 mm
04:35 -18.6 °C -19.7 °C 34496.6 hPa NNW 15.6 km/h 41.4 km/h 86 % 0 mm
04:41 -18.7 °C -19.8 °C 34496.6 hPa NE 7.6 km/h 28.5 km/h 86 % 0 mm
04:47 -18.7 °C -19.7 °C 34496.6 hPa NE 10.3 km/h 36.2 km/h 87 % 0 mm
04:53 -18.6 °C -19.7 °C 34496.6 hPa East 7.6 km/h 25.9 km/h 87 % 0 mm
04:59 -18.7 °C -19.7 °C 34496.6 hPa NNE 12.7 km/h 28.5 km/h 87 % 0 mm
05:05 -18.7 °C -19.7 °C 34496.6 hPa ENE 7.6 km/h 25.9 km/h 87 % 0 mm
05:11 -18.7 °C -19.7 °C 34496.6 hPa NE 5.1 km/h 33.6 km/h 87 % 0 mm
05:17 -18.7 °C -19.7 °C 34496.6 hPa NNE 15.6 km/h 31.1 km/h 87 % 0 mm
05:23 -18.7 °C -19.6 °C 34496.6 hPa North 7.6 km/h 25.9 km/h 88 % 0 mm
05:29 -18.7 °C -19.6 °C 34496.6 hPa NW 12.7 km/h 31.1 km/h 88 % 0 mm
05:35 -18.7 °C -19.6 °C 34486.4 hPa NNE 15.6 km/h 31.1 km/h 88 % 0 mm
05:41 -18.7 °C -19.6 °C 34486.4 hPa NE 10.3 km/h 36.2 km/h 88 % 0 mm
05:47 -18.7 °C -19.6 °C 34486.4 hPa ENE 12.7 km/h 33.6 km/h 88 % 0 mm
05:53 -18.7 °C -19.6 °C 34486.4 hPa NNW 17.9 km/h 33.6 km/h 88 % 0 mm
05:59 -18.7 °C -19.6 °C 34486.4 hPa NW 5.1 km/h 33.6 km/h 89 % 0 mm
06:05 -18.7 °C -19.6 °C 34486.4 hPa NNE 15.6 km/h 36.2 km/h 89 % 0 mm
06:11 -18.7 °C -19.6 °C 34486.4 hPa North 10.3 km/h 28.5 km/h 89 % 0 mm
06:17 -18.7 °C -19.6 °C 34486.4 hPa NW 20.9 km/h 33.6 km/h 89 % 0 mm
06:23 -18.7 °C -19.6 °C 34486.4 hPa NNE 7.6 km/h 28.5 km/h 89 % 0 mm
06:29 -18.7 °C -19.7 °C 34486.4 hPa NNE 15.6 km/h 44.1 km/h 88 % 0 mm
06:35 -18.8 °C -19.7 °C 34486.4 hPa NNW 10.3 km/h 36.2 km/h 89 % 0 mm
06:41 -18.8 °C -19.7 °C 34486.4 hPa North 10.3 km/h 33.6 km/h 89 % 0 mm
06:47 -18.8 °C -19.7 °C 34476.3 hPa North 15.6 km/h 31.1 km/h 89 % 0 mm
06:53 -18.8 °C -19.7 °C 34476.3 hPa NE 7.6 km/h 36.2 km/h 89 % 0 mm
06:59 -18.8 °C -19.7 °C 34476.3 hPa NNW 2.3 km/h 36.2 km/h 89 % 0 mm
07:05 -18.8 °C -19.7 °C 34476.3 hPa NE 20.9 km/h 33.6 km/h 89 % 0 mm
07:11 -18.8 °C -19.6 °C 34476.3 hPa North 20.9 km/h 28.5 km/h 90 % 0 mm
07:18 -18.8 °C -19.6 °C 34476.3 hPa North 10.3 km/h 33.6 km/h 90 % 0 mm
07:24 -18.8 °C -19.6 °C 34476.3 hPa NE 17.9 km/h 28.5 km/h 90 % 0 mm
07:30 -18.9 °C -19.7 °C 34476.3 hPa North 28.5 km/h 28.5 km/h 90 % 0 mm
07:36 -18.9 °C -19.7 °C 34476.3 hPa NW 15.6 km/h 33.6 km/h 90 % 0 mm
07:42 -18.9 °C -19.7 °C 34476.3 hPa NNW 15.6 km/h 25.9 km/h 90 % 0 mm
07:48 -18.9 °C -19.7 °C 34476.3 hPa North 5.1 km/h 28.5 km/h 91 % 0 mm
07:54 -18.9 °C -19.7 °C 34476.3 hPa NNW 2.3 km/h 28.5 km/h 90 % 0 mm
08:00 -18.9 °C -19.7 °C 34476.3 hPa NNW 12.7 km/h 15.6 km/h 91 % 0 mm
08:06 -19 °C -19.7 °C 34476.3 hPa North 2.3 km/h 18.2 km/h 91 % 0 mm
08:12 -19 °C -19.7 °C 34476.3 hPa NNW 23 km/h 41.4 km/h 91 % 0 mm
08:18 -19 °C -19.7 °C 34476.3 hPa NE 2.3 km/h 31.1 km/h 91 % 0 mm
08:24 -19 °C -19.7 °C 34486.4 hPa North 17.9 km/h 31.1 km/h 91 % 0 mm
08:30 -19 °C -19.7 °C 34486.4 hPa NNW 15.6 km/h 20.8 km/h 91 % 0 mm
08:36 -19 °C -19.7 °C 34476.3 hPa NNW 20.9 km/h 28.5 km/h 91 % 0 mm
08:42 -19 °C -19.7 °C 34476.3 hPa NNW 15.6 km/h 25.9 km/h 91 % 0 mm
08:48 -19 °C -19.7 °C 34476.3 hPa NW 15.6 km/h 18.2 km/h 91 % 0 mm
08:54 -19.1 °C -19.8 °C 34476.3 hPa NE 7.6 km/h 28.5 km/h 91 % 0 mm
09:00 -19 °C -19.7 °C 34476.3 hPa North 20.9 km/h 25.9 km/h 91 % 0 mm
09:06 -19 °C -19.7 °C 34476.3 hPa North 7.6 km/h 25.9 km/h 91 % 0 mm
09:12 -19 °C -19.6 °C 34476.3 hPa ENE 12.7 km/h 15.6 km/h 92 % 0 mm
09:18 -19 °C -19.6 °C 34486.4 hPa NNW 23 km/h 25.9 km/h 92 % 0 mm
09:24 -19 °C -19.6 °C 34476.3 hPa NNW 20.9 km/h 28.5 km/h 92 % 0 mm
09:30 -19 °C -19.6 °C 34476.3 hPa NE 12.7 km/h 23.3 km/h 92 % 0 mm
09:36 -19 °C -19.6 °C 34476.3 hPa NE 10.3 km/h 20.8 km/h 92 % 0 mm
09:42 -18.9 °C -19.6 °C 34486.4 hPa NNE 15.6 km/h 20.8 km/h 92 % 0 mm
09:48 -18.9 °C -19.6 °C 34476.3 hPa Calm   18.2 km/h 92 % 0 mm
09:54 -18.9 °C -19.6 °C 34486.4 hPa NE 15.6 km/h 20.8 km/h 92 % 0 mm
10:00 -18.9 °C -19.5 °C 34486.4 hPa NNW 2.3 km/h 15.6 km/h 92 % 0 mm
10:06 -18.8 °C -19.4 °C 34486.4 hPa NNE 15.6 km/h 15.6 km/h 92 % 0 mm
10:12 -18.8 °C -19.6 °C 34486.4 hPa NNW 15.6 km/h 25.9 km/h 91 % 0 mm
10:18 -18.8 °C -19.6 °C 34486.4 hPa North 15.6 km/h 20.8 km/h 91 % 0 mm
10:24 -18.8 °C -19.5 °C 34486.4 hPa NNW 12.7 km/h 23.3 km/h 91 % 0 mm
10:30 -18.8 °C -19.5 °C 34486.4 hPa NE 12.7 km/h 20.8 km/h 91 % 0 mm
10:36 -18.8 °C -19.5 °C 34486.4 hPa NNE 7.6 km/h 25.9 km/h 91 % 0 mm
10:42 -18.7 °C -19.4 °C 34476.3 hPa NNE 12.7 km/h 18.2 km/h 91 % 0 mm
10:48 -18.7 °C -19.4 °C 34476.3 hPa NNE 7.6 km/h 23.3 km/h 91 % 0 mm
10:54 -18.7 °C -19.4 °C 34476.3 hPa North 2.3 km/h 20.8 km/h 91 % 0 mm
11:00 -18.7 °C -19.4 °C 34462.7 hPa ENE 7.6 km/h 25.9 km/h 91 % 0 mm
11:06 -18.7 °C -19.4 °C 34476.3 hPa NE 20.9 km/h 25.9 km/h 91 % 0 mm
11:12 -18.6 °C -19.3 °C 34476.3 hPa North 15.6 km/h 20.8 km/h 91 % 0 mm
11:18 -18.6 °C -19.3 °C 34476.3 hPa ENE 15.6 km/h 25.9 km/h 91 % 0 mm
11:24 -18.6 °C -19.3 °C 34476.3 hPa NNE 10.3 km/h 18.2 km/h 91 % 0 mm
11:30 -18.6 °C -19.3 °C 34476.3 hPa NE 7.6 km/h 18.2 km/h 91 % 0 mm
11:36 -18.6 °C -19.3 °C 34476.3 hPa North 7.6 km/h 15.6 km/h 91 % 0 mm
11:42 -18.6 °C -19.3 °C 34476.3 hPa NNE 10.3 km/h 18.2 km/h 91 % 0 mm
11:48 -18.5 °C -19.2 °C 34476.3 hPa NNE 12.7 km/h 18.2 km/h 91 % 0 mm
11:54 -18.5 °C -19.2 °C 34476.3 hPa ENE 5.1 km/h 18.2 km/h 91 % 0 mm
12:00 -18.5 °C -19.2 °C 34476.3 hPa NE 12.7 km/h 15.6 km/h 91 % 0 mm
12:06 -18.5 °C -19.2 °C 34476.3 hPa North 2.3 km/h 10.3 km/h 91 % 0 mm
12:12 -18.4 °C -19.2 °C 34462.7 hPa NNE 12.7 km/h 12.9 km/h 91 % 0 mm
12:18 -18.4 °C -19.2 °C 34462.7 hPa NE 7.6 km/h 12.9 km/h 91 % 0 mm
12:24 -18.4 °C -19.2 °C 34462.7 hPa ENE 2.3 km/h 12.9 km/h 91 % 0 mm
12:30 -18.4 °C -19 °C 34462.7 hPa NE 5.1 km/h 15.6 km/h 92 % 0 mm
12:36 -18.4 °C -19 °C 34462.7 hPa North 5.1 km/h 15.6 km/h 92 % 0 mm
12:42 -18.4 °C -19 °C 34462.7 hPa Calm   2.6 km/h 92 % 0 mm
12:48 -18.4 °C -19 °C 34462.7 hPa NNE 5.1 km/h 12.9 km/h 92 % 0 mm
12:54 -18.3 °C -18.9 °C 34462.7 hPa NE 10.3 km/h 12.9 km/h 92 % 0 mm
13:00 -18.3 °C -18.9 °C 34452.6 hPa NNE 7.6 km/h 12.9 km/h 92 % 0 mm
13:06 -18.3 °C -18.9 °C 34452.6 hPa NNE 2.3 km/h 18.2 km/h 92 % 0 mm
13:12 -18.3 °C -18.9 °C 34452.6 hPa NNE 7.6 km/h 12.9 km/h 92 % 0 mm
13:18 -18.3 °C -18.9 °C 34442.4 hPa North 5.1 km/h 20.8 km/h 92 % 0 mm
13:24 -18.3 °C -18.9 °C 34442.4 hPa NE 10.3 km/h 18.2 km/h 92 % 0 mm
13:30 -18.2 °C -18.8 °C 34442.4 hPa NNE 2.3 km/h 7.7 km/h 92 % 0 mm
13:36 -18.2 °C -18.8 °C 34442.4 hPa North 12.7 km/h 15.6 km/h 92 % 0 mm
13:42 -18.2 °C -18.8 °C 34428.8 hPa Calm   18.2 km/h 92 % 0 mm
13:48 -18.2 °C -18.8 °C 34428.8 hPa NE 2.3 km/h 15.6 km/h 92 % 0 mm
13:54 -18.2 °C -18.8 °C 34428.8 hPa NE 5.1 km/h 15.6 km/h 92 % 0 mm
14:00 -18.1 °C -18.7 °C 34428.8 hPa NNE 7.6 km/h 15.6 km/h 92 % 0 mm
14:06 -18.1 °C -18.7 °C 34428.8 hPa North 15.6 km/h 18.2 km/h 92 % 0 mm
14:12 -18.1 °C -18.7 °C 34428.8 hPa NE 7.6 km/h 20.8 km/h 92 % 0 mm
14:18 -18.1 °C -18.7 °C 34428.8 hPa NNE 7.6 km/h 15.6 km/h 92 % 0 mm
14:24 -18 °C -18.6 °C 34418.7 hPa ENE 5.1 km/h 15.6 km/h 92 % 0 mm
14:30 -18 °C -18.6 °C 34418.7 hPa NNE 5.1 km/h 18.2 km/h 92 % 0 mm
14:36 -17.9 °C -18.6 °C 34418.7 hPa NNE 5.1 km/h 15.6 km/h 92 % 0 mm
14:42 -18 °C -18.6 °C 34405.1 hPa North 2.3 km/h 20.8 km/h 92 % 0 mm
14:48 -17.9 °C -18.6 °C 34418.7 hPa North 2.3 km/h 28.5 km/h 92 % 0 mm
14:54 -17.9 °C -18.6 °C 34405.1 hPa NNE 5.1 km/h 28.5 km/h 92 % 0 mm
15:00 -17.9 °C -18.6 °C 34405.1 hPa North 10.3 km/h 23.3 km/h 92 % 0 mm
15:06 -17.9 °C -18.5 °C 34405.1 hPa NNW 10.3 km/h 18.2 km/h 92 % 0 mm
15:12 -17.9 °C -18.5 °C 34405.1 hPa North 5.1 km/h 18.2 km/h 92 % 0 mm
15:18 -17.8 °C -18.4 °C 34405.1 hPa NNE 12.7 km/h 25.9 km/h 92 % 0 mm
15:24 -17.8 °C -18.4 °C 34395 hPa NE 10.3 km/h 25.9 km/h 92 % 0 mm
15:30 -17.8 °C -18.4 °C 34395 hPa NNW 15.6 km/h 20.8 km/h 92 % 0 mm
15:36 -17.8 °C -18.4 °C 34395 hPa ENE 15.6 km/h 20.8 km/h 92 % 0 mm
15:42 -17.8 °C -18.4 °C 34395 hPa North 12.7 km/h 20.8 km/h 92 % 0 mm
15:48 -17.7 °C -18.3 °C 34395 hPa NNE 5.1 km/h 18.2 km/h 92 % 0 mm
15:54 -17.7 °C -18.3 °C 34384.8 hPa NE 15.6 km/h 31.1 km/h 92 % 0 mm
16:00 -17.7 °C -18.3 °C 34384.8 hPa NNE 10.3 km/h 20.8 km/h 92 % 0 mm
16:06 -17.7 °C -18.3 °C 34384.8 hPa North 5.1 km/h 23.3 km/h 92 % 0 mm
16:12 -17.7 °C -18.3 °C 34384.8 hPa NNE 20.9 km/h 20.9 km/h 92 % 0 mm
16:18 -17.7 °C -18.3 °C 34384.8 hPa NNE 12.7 km/h 18.2 km/h 92 % 0 mm
16:24 -17.7 °C -18.3 °C 34371.3 hPa NW 5.1 km/h 20.8 km/h 92 % 0 mm
16:30 -17.7 °C -18.3 °C 34371.3 hPa NNW 5.1 km/h 18.2 km/h 92 % 0 mm
16:36 -17.7 °C -18.3 °C 34371.3 hPa NNE 17.9 km/h 23.3 km/h 92 % 0 mm
16:42 -17.7 °C -18.3 °C 34371.3 hPa NNE 5.1 km/h 20.8 km/h 92 % 0 mm
16:48 -17.7 °C -18.3 °C 34371.3 hPa North 7.6 km/h 25.9 km/h 92 % 0 mm
16:54 -17.7 °C -18.3 °C 34371.3 hPa NE 23 km/h 25.9 km/h 92 % 0 mm
17:00 -17.7 °C -18.3 °C 34371.3 hPa NNE 12.7 km/h 12.9 km/h 92 % 0 mm
17:06 -17.7 °C -18.3 °C 34371.3 hPa NNE 2.3 km/h 15.6 km/h 92 % 0 mm
17:12 -17.6 °C -18.2 °C 34371.3 hPa NE 5.1 km/h 12.9 km/h 92 % 0 mm
17:18 -17.6 °C -18.2 °C 34371.3 hPa North 2.3 km/h 12.9 km/h 92 % 0 mm
17:24 -17.6 °C -18.2 °C 34371.3 hPa NNE 5.1 km/h 10.3 km/h 92 % 0 mm
17:30 -17.6 °C -18.2 °C 34371.3 hPa NE 15.6 km/h 20.8 km/h 92 % 0 mm
17:36 -17.6 °C -18.2 °C 34371.3 hPa NNE 12.7 km/h 15.6 km/h 92 % 0 mm
17:42 -17.6 °C -18.2 °C 34371.3 hPa NNE 10.3 km/h 15.6 km/h 92 % 0 mm
17:48 -17.6 °C -18.2 °C 34371.3 hPa ENE 12.7 km/h 15.6 km/h 93 % 0 mm
17:54 -17.6 °C -18.2 °C 34371.3 hPa NNE 5.1 km/h 12.9 km/h 93 % 0 mm
18:01 -17.6 °C -18.2 °C 34371.3 hPa NE 10.3 km/h 15.6 km/h 93 % 0 mm
18:07 -17.7 °C -18.2 °C 34371.3 hPa Calm   15.6 km/h 93 % 0 mm
18:13 -17.7 °C -18.2 °C 34361.1 hPa NNE 7.6 km/h 10.3 km/h 93 % 0 mm
18:19 -17.7 °C -18.2 °C 34361.1 hPa NE 5.1 km/h 12.9 km/h 94 % 0 mm
18:25 -17.7 °C -18.2 °C 34361.1 hPa NE 10.3 km/h 12.9 km/h 94 % 0 mm
18:31 -17.7 °C -18.2 °C 34361.1 hPa ENE 2.3 km/h 15.6 km/h 94 % 0 mm
18:37 -17.7 °C -18.2 °C 34361.1 hPa NNE 7.6 km/h 15.6 km/h 94 % 0 mm
18:43 -17.8 °C -18.2 °C 34361.1 hPa NNE 2.3 km/h 12.9 km/h 95 % 0 mm
18:49 -17.8 °C -18.2 °C 34361.1 hPa NNE 12.7 km/h 12.9 km/h 95 % 0 mm
18:55 -17.8 °C -18.2 °C 34361.1 hPa NNE 2.3 km/h 10.3 km/h 95 % 0 mm
19:01 -17.8 °C -18.2 °C 34361.1 hPa North 5.1 km/h 10.3 km/h 95 % 0 mm
19:07 -17.8 °C -18.1 °C 34361.1 hPa NNE 10.3 km/h 10.3 km/h 96 % 0 mm
19:13 -17.8 °C -18.1 °C 34361.1 hPa North 7.6 km/h 7.7 km/h 96 % 0 mm
19:19 -17.8 °C -18.1 °C 34361.1 hPa NNE 5.1 km/h 10.3 km/h 96 % 0 mm
19:25 -17.8 °C -18.1 °C 34361.1 hPa NNE 2.3 km/h 10.3 km/h 96 % 0 mm
19:31 -17.8 °C -18.1 °C 34347.6 hPa NE 12.7 km/h 20.8 km/h 96 % 0 mm
19:37 -17.8 °C -18.1 °C 34347.6 hPa NNE 5.1 km/h 10.3 km/h 96 % 0 mm
19:43 -17.7 °C -18.1 °C 34347.6 hPa Calm   5.1 km/h 96 % 0 mm
19:49 -17.7 °C -18.1 °C 34347.6 hPa NNE 7.6 km/h 15.6 km/h 96 % 0 mm
19:55 -17.7 °C -18.1 °C 34347.6 hPa NE 2.3 km/h 10.3 km/h 96 % 0 mm
20:01 -17.7 °C -18.1 °C 34347.6 hPa NE 5.1 km/h 12.9 km/h 96 % 0 mm
20:07 -17.7 °C -18.1 °C 34347.6 hPa NE 2.3 km/h 10.3 km/h 96 % 0 mm
20:13 -17.7 °C -18.1 °C 34347.6 hPa NNE 2.3 km/h 15.6 km/h 96 % 0 mm
20:19 -17.7 °C -18.1 °C 34337.4 hPa NNE 5.1 km/h 18.2 km/h 96 % 0 mm
20:25 -17.7 °C -18.1 °C 34337.4 hPa Calm   12.9 km/h 96 % 0 mm
20:31 -17.7 °C -18.1 °C 34337.4 hPa ENE 5.1 km/h 10.3 km/h 96 % 0 mm
20:37 -17.7 °C -18.1 °C 34337.4 hPa NNE 5.1 km/h 10.3 km/h 96 % 0 mm
20:43 -17.7 °C -17.9 °C 34337.4 hPa NE 5.1 km/h 5.1 km/h 97 % 0 mm
20:49 -17.7 °C -17.9 °C 34337.4 hPa NNE 5.1 km/h 10.3 km/h 97 % 0 mm
20:55 -17.7 °C -17.9 °C 34337.4 hPa Calm   2.6 km/h 97 % 0 mm
21:01 -17.7 °C -17.9 °C 34337.4 hPa Calm   7.7 km/h 97 % 0 mm
21:07 -17.7 °C -17.9 °C 34337.4 hPa Calm   7.7 km/h 97 % 0 mm
21:13 -17.7 °C -17.9 °C 34337.4 hPa Calm   10.3 km/h 97 % 0 mm
21:19 -17.7 °C -17.9 °C 34337.4 hPa North 2.3 km/h 10.3 km/h 97 % 0 mm
21:25 -17.7 °C -17.9 °C 34337.4 hPa North 2.3 km/h 10.3 km/h 97 % 0 mm
21:31 -17.7 °C -17.9 °C 34337.4 hPa NE 2.3 km/h 7.7 km/h 97 % 0 mm
21:37 -17.7 °C -17.9 °C 34337.4 hPa NNE 2.3 km/h 7.7 km/h 97 % 0 mm
21:43 -17.7 °C -17.9 °C 34337.4 hPa NNW 2.3 km/h 10.3 km/h 97 % 0 mm
21:49 -17.7 °C -17.9 °C 34337.4 hPa NNW 2.3 km/h 7.7 km/h 97 % 0 mm
21:55 -17.7 °C -17.9 °C 34337.4 hPa Calm   10.3 km/h 97 % 0 mm
22:01 -17.7 °C -17.9 °C 34337.4 hPa NNE 5.1 km/h 10.3 km/h 97 % 0 mm
22:07 -17.7 °C -17.9 °C 34327.3 hPa Calm   7.7 km/h 97 % 0 mm
22:13 -17.7 °C -17.9 °C 34327.3 hPa NNW 5.1 km/h 7.7 km/h 97 % 0 mm
22:19 -17.7 °C -17.9 °C 34327.3 hPa Calm   7.7 km/h 97 % 0 mm
22:25 -17.7 °C -17.9 °C 34327.3 hPa NNE 5.1 km/h 7.7 km/h 97 % 0 mm
22:31 -17.7 °C -17.9 °C 34327.3 hPa NNE 2.3 km/h 10.3 km/h 97 % 0 mm
22:37 -17.7 °C -17.9 °C 34327.3 hPa North 2.3 km/h 5.1 km/h 97 % 0 mm
22:43 -17.7 °C -17.9 °C 34313.7 hPa Calm   5.1 km/h 97 % 0 mm
22:49 -17.7 °C -17.9 °C 34313.7 hPa Calm   5.1 km/h 97 % 0 mm
22:55 -17.7 °C -17.9 °C 34313.7 hPa Calm   7.7 km/h 97 % 0 mm
23:01 -17.7 °C -17.9 °C 34313.7 hPa North 5.1 km/h 5.1 km/h 97 % 0 mm
23:07 -17.7 °C -17.9 °C 34303.6 hPa NW 2.3 km/h 7.7 km/h 97 % 0 mm
23:13 -17.7 °C -17.9 °C 34303.6 hPa North 5.1 km/h 5.1 km/h 97 % 0 mm
23:19 -17.7 °C -17.9 °C 34303.6 hPa North 2.3 km/h 5.1 km/h 97 % 0 mm
23:25 -17.7 °C -17.9 °C 34303.6 hPa NNE 5.1 km/h 7.7 km/h 97 % 0 mm
23:31 -17.7 °C -17.9 °C 34303.6 hPa Calm   5.1 km/h 97 % 0 mm
23:37 -17.7 °C -17.9 °C 34303.6 hPa Calm   2.6 km/h 97 % 0 mm
23:43 -17.7 °C -17.9 °C 34303.6 hPa Calm   5.1 km/h 97 % 0 mm
23:49 -17.7 °C -17.9 °C 34303.6 hPa Calm     97 % 0 mm
23:55 -17.8 °C -18 °C 34303.6 hPa NNE 2.3 km/h 5.1 km/h 97 % 0 mm
Meteo18
Compliments of Weather Underground - 4 mb

Script developed by  Jim McMurry - jmcmurry@mwt.net Adapted for the template by  Wim van der Kuil - Leuven-Template.eu

You find our weather info also at:

European Weather Network

Weather Underground

Equipment we use:

Weather-station
Davis Vue

Weather-program
Meteobridge

Weather-server
Raspberry PI 2 B+

Provider
1 and 1

Davis Vue

Meteobridge

Raspberry PI 2 B+

1 and 1